KUIPER-00078

Last updated on Sat Aug 16 2025 00:02:06 GMT+0000 (Coordinated Universal Time)

1 64825U 25151K 25227.46966168 .00031192 00000+0 89174-3 0 9990 2 64825 51.8784 142.0414 0005460 263.9460 96.0904 15.35698962 4636
UTC large
Height (km)
Speed (km/s)
/
Latitude / Longitude
Inclination (degrees)
Orbital Period (minutes)
Azimuth
Elevation
Range (km)
Doppler Factor

Next 0 passes for location: London (51.5072 / 0.1276)

Sorry there are no passes over London.